Weather History for KOFP - September, 2013

Change the Weather History Date:

Sunday, September 15, 2013

  Actual Average Record
Temperature  
Mean Temperature 62 °F -  
Max Temperature 77 °F 80 °F 94 °F (1962)
Min Temperature 46 °F 58 °F 42 °F (1975)
Degree Days  
Heating Degree Days 4    
Growing Degree Days 12 (Base 50)    
Moisture  
Dew Point 51 °F    
Average Humidity 72    
Maximum Humidity 97    
Minimum Humidity 42    
Precipitation  
Precipitation 0.00 in - - ()
Sea Level Pressure  
Sea Level Pressure 30.20 in    
Wind  
Wind Speed 1 mph (SW)    
Max Wind Speed 8 mph    
Max Gust Speed -    
Visibility 10 miles    
Events      
Averages and records for this station are not official NWS values.
T = Trace of Precipitation, MM = Missing Value Source: NWS Daily Summary

Daily Weather History Graph

Daily Weather History Graph

Search for Another Location

Airport or City:

Trip Planner

Search our weather history database for the weather conditions in past years. The results will help you decide how hot, cold, wet, or windy it might be!

Date:

Astronomy

Sep. 15, 2013 Rise Set
Actual Time 6:51 AM EDT 7:17 PM EDT
Civil Twilight 6:25 AM EDT 7:43 PM EDT
Nautical Twilight 5:54 AM EDT 8:14 PM EDT
Astronomical Twilight 5:23 AM EDT 8:45 PM EDT
Moon 4:40 PM EDT (9/15) 2:31 AM EDT (9/15)
Length of Visible Light 13h 17m
Length of Day
12h 25m
Waxing Gibbous, 82% of the Moon is Illuminated
Sep 15
Waxing Gibbous
Sep 19
Full
Sep 26
Last Quarter
Oct 4
New
Oct 11
First Quarter

Hourly Weather History & Observations

Time (EDT) Temp. Dew Point Humidity Pressure Visibility Wind Dir Wind Speed Gust Speed Precip Events Conditions
12:54 AM 48.9 °F 48.0 °F 97% 30.19 in 10.0 mi Calm Calm - N/A   Clear
1:54 AM 48.9 °F 48.0 °F 97% 30.21 in 10.0 mi Calm Calm - N/A   Clear
2:54 AM 48.9 °F 46.9 °F 93% 30.21 in 10.0 mi Calm Calm - N/A   Clear
3:54 AM 48.0 °F 46.9 °F 96% 30.21 in 8.0 mi Calm Calm - N/A   Clear
4:54 AM 46.9 °F 46.0 °F 97% 30.21 in 9.0 mi Calm Calm - N/A   Clear
5:54 AM 46.9 °F 45.0 °F 93% 30.22 in 9.0 mi Calm Calm - N/A   Clear
6:54 AM 46.0 °F 45.0 °F 96% 30.23 in 6.0 mi Calm Calm - N/A   Clear
7:54 AM 50.0 °F 48.0 °F 93% 30.25 in 6.0 mi Calm Calm - N/A   Clear
8:54 AM 57.0 °F 50.0 °F 77% 30.26 in 10.0 mi Calm Calm - N/A   Clear
9:54 AM 64.0 °F 51.1 °F 63% 30.27 in 10.0 mi Calm Calm - N/A   Clear
10:54 AM 68.0 °F 48.9 °F 50% 30.27 in 10.0 mi Variable 3.5 mph - N/A   Clear
11:54 AM 70.0 °F 48.9 °F 47% 30.26 in 10.0 mi Calm Calm - N/A   Clear
12:54 PM 73.0 °F 50.0 °F 44% 30.24 in 10.0 mi Variable 4.6 mph - N/A   Clear
1:54 PM 75.0 °F 51.1 °F 43% 30.21 in 10.0 mi Variable 3.5 mph - N/A   Clear
2:54 PM 75.9 °F 51.1 °F 42% 30.19 in 10.0 mi Variable 3.5 mph - N/A   Clear
3:54 PM 75.9 °F 51.1 °F 42% 30.16 in 10.0 mi SSW 4.6 mph - N/A   Clear
4:54 PM 77.0 °F 53.1 °F 43% 30.14 in 10.0 mi SSW 4.6 mph - N/A   Clear
5:54 PM 75.9 °F 52.0 °F 43% 30.14 in 10.0 mi SW 8.1 mph - N/A   Clear
6:54 PM 68.0 °F 59.0 °F 73% 30.14 in 10.0 mi Calm Calm - N/A   Clear
7:54 PM 62.1 °F 57.9 °F 86% 30.13 in 10.0 mi Calm Calm - N/A   Clear
8:54 PM 61.0 °F 57.9 °F 90% 30.14 in 10.0 mi Calm Calm - N/A   Clear
9:54 PM 64.0 °F 55.9 °F 75% 30.14 in 10.0 mi Calm Calm - N/A   Clear
10:54 PM 64.9 °F 55.9 °F 73% 30.14 in 10.0 mi Calm Calm - N/A   Clear
11:54 PM 63.0 °F 55.9 °F 78% 30.14 in 10.0 mi Calm Calm - N/A   Clear